Weather History for Orangeburg, SC

Change the Weather History Date:

Tuesday, April 23, 2013

  Actual Average Record
Temperature  
Mean Temperature 61 °F 65 °F  
Max Temperature 71 °F 78 °F 89 °F (1957)
Min Temperature 50 °F 52 °F 32 °F (1986)
Degree Days  
Heating Degree Days 4 2  
Month to date heating degree days 83 96  
Since 1 July heating degree days 2150 2305  
Cooling Degree Days 0 3  
Month to date cooling degree days 53 42  
Year to date cooling degree days 79 62  
Growing Degree Days 10 (Base 50)    
Moisture  
Dew Point 48 °F    
Average Humidity 67    
Maximum Humidity 93    
Minimum Humidity 49    
Precipitation  
Precipitation 0.00 in 0.08 in 0.96 in (1988)
Month to date precipitation 2.18 2.34  
Year to date precipitation 13.40 13.89  
Sea Level Pressure  
Sea Level Pressure 30.19 in    
Wind  
Wind Speed 6 mph (ENE)    
Max Wind Speed 15 mph    
Max Gust Speed 18 mph    
Visibility 10 miles    
Events      
T = Trace of Precipitation, MM = Missing Value Source: NWS Daily Summary

Daily Weather History Graph

Daily Weather History Graph

Search for Another Location

Airport:

Trip Planner

Search our weather history database for the weather conditions in past years. The results will help you decide how hot, cold, wet, or windy it might be!

Date:

Astronomy

Apr. 23, 2013 Rise Set
Actual Time 6:43 AM EDT 8:00 PM EDT
Civil Twilight 6:17 AM EDT 8:26 PM EDT
Nautical Twilight 5:46 AM EDT 8:57 PM EDT
Astronomical Twilight 5:14 AM EDT 9:29 PM EDT
Moon 5:58 PM EDT (4/23) 5:03 AM EDT (4/23)
Length of Visible Light 14h 09m
Length of Day
13h 17m
Waxing Gibbous, 94% of the Moon is Illuminated
Apr 23
Waxing Gibbous
Apr 25
Full
May 2
Last Quarter
May 9
New
May 18
First Quarter

Hourly Weather History & Observations

Time (EDT) Temp. Dew Point Humidity Pressure Visibility Wind Dir Wind Speed Gust Speed Precip Events Conditions
12:53 AM 52.0 °F 44.1 °F 74% 30.21 in 10.0 mi NE 4.6 mph - N/A   Clear
1:53 AM 51.1 °F 43.0 °F 74% 30.21 in 10.0 mi NE 4.6 mph - N/A   Clear
2:53 AM 51.1 °F 44.1 °F 77% 30.19 in 10.0 mi North 3.5 mph - N/A   Clear
3:27 AM 51.8 °F 44.6 °F 76% 30.19 in 10.0 mi NNE 4.6 mph - N/A   Mostly Cloudy
3:53 AM 50.0 °F 44.1 °F 80% 30.19 in 10.0 mi Calm Calm - N/A   Mostly Cloudy
4:53 AM 50.0 °F 43.0 °F 77% 30.18 in 10.0 mi NE 5.8 mph - N/A   Overcast
6:53 AM 52.0 °F 45.0 °F 77% 30.20 in 10.0 mi NNE 4.6 mph - N/A   Overcast
7:53 AM 53.1 °F 45.0 °F 74% 30.21 in 10.0 mi NNE 6.9 mph - N/A   Overcast
8:35 AM 55.4 °F 46.4 °F 72% 30.21 in 10.0 mi ENE 8.1 mph - N/A   Mostly Cloudy
8:53 AM 55.9 °F 46.0 °F 69% 30.21 in 10.0 mi NE 13.8 mph - N/A   Scattered Clouds
9:21 AM 55.4 °F 46.4 °F 72% 30.21 in 10.0 mi ENE 8.1 mph - N/A   Mostly Cloudy
9:53 AM 57.0 °F 46.9 °F 69% 30.22 in 10.0 mi NNE 9.2 mph - N/A   Overcast
10:53 AM 60.1 °F 48.9 °F 67% 30.23 in 10.0 mi NE 9.2 mph - N/A   Mostly Cloudy
11:32 AM 62.6 °F 48.2 °F 59% 30.23 in 10.0 mi North 9.2 mph - N/A   Scattered Clouds
11:53 AM 62.1 °F 48.9 °F 62% 30.22 in 10.0 mi Variable 6.9 mph - N/A   Partly Cloudy
12:18 PM 62.6 °F 48.2 °F 59% 30.23 in 10.0 mi NNE 9.2 mph 18.4 mph N/A   Mostly Cloudy
12:27 PM 64.4 °F 50.0 °F 59% 30.22 in 10.0 mi ENE 6.9 mph - N/A   Scattered Clouds
12:37 PM 64.4 °F 48.2 °F 56% 30.22 in 10.0 mi NE 6.9 mph - N/A   Mostly Cloudy
12:44 PM 64.4 °F 48.2 °F 56% 30.22 in 10.0 mi NNE 6.9 mph - N/A   Scattered Clouds
12:53 PM 64.9 °F 48.9 °F 56% 30.21 in 10.0 mi East 6.9 mph - N/A   Mostly Cloudy
1:53 PM 66.0 °F 50.0 °F 56% 30.18 in 10.0 mi East 8.1 mph - N/A   Mostly Cloudy
2:53 PM 66.9 °F 50.0 °F 54% 30.18 in 10.0 mi Variable 3.5 mph - N/A   Scattered Clouds
3:53 PM 70.0 °F 51.1 °F 51% 30.16 in 10.0 mi North 4.6 mph - N/A   Scattered Clouds
4:53 PM 71.1 °F 51.1 °F 49% 30.14 in 10.0 mi NNE 3.5 mph - N/A   Clear
5:53 PM 69.1 °F 51.1 °F 53% 30.13 in 10.0 mi ESE 6.9 mph - N/A   Partly Cloudy
6:53 PM 68.0 °F 51.1 °F 55% 30.13 in 10.0 mi ESE 6.9 mph - N/A   Clear
7:53 PM 64.0 °F 53.1 °F 67% 30.14 in 10.0 mi SE 4.6 mph - N/A   Clear
8:53 PM 61.0 °F 53.1 °F 75% 30.15 in 10.0 mi Calm Calm - N/A   Clear
9:53 PM 59.0 °F 53.1 °F 81% 30.17 in 10.0 mi ESE 4.6 mph - N/A   Clear
10:53 PM 57.0 °F 52.0 °F 83% 30.16 in 10.0 mi SE 4.6 mph - N/A   Clear
11:53 PM 55.9 °F 53.1 °F 90% 30.18 in 10.0 mi SSE 4.6 mph - N/A   Clear